owner,sensor,date,latitude,longitude,vertical_datum,mass_concentration_of_oxygen_in_sea_water,qcFlag 
SCCF RECON,ioos:station:SCCF:12:1,2009-12-01T00:00:00Z,26.4966,-82.1479,2.51,7.77,1111122 
SCCF RECON,ioos:station:SCCF:12:1,2009-12-01T01:00:00Z,26.4966,-82.1479,2.6,7.32,1111122 
SCCF RECON,ioos:station:SCCF:12:1,2009-12-01T02:00:00Z,26.4966,-82.1479,2.691,7.51,1111122 
SCCF RECON,ioos:station:SCCF:12:1,2009-12-01T03:00:00Z,26.4966,-82.1479,2.77,7.41,1111122 
SCCF RECON,ioos:station:SCCF:12:1,2009-12-01T04:00:00Z,26.4966,-82.1479,2.79,7.42,1111122 
SCCF RECON,ioos:station:SCCF:12:1,2009-12-01T05:00:00Z,26.4966,-82.1479,2.732,7.53,1111122 
SCCF RECON,ioos:station:SCCF:12:1,2009-12-01T06:00:00Z,26.4966,-82.1479,2.63,7.55,1111122 
SCCF RECON,ioos:station:SCCF:12:1,2009-12-01T07:00:00Z,26.4966,-82.1479,2.47,7.32,1111122 
SCCF RECON,ioos:station:SCCF:12:1,2009-12-01T08:00:00Z,26.4966,-82.1479,2.3,7.13,1111122 
SCCF RECON,ioos:station:SCCF:12:1,2009-12-01T09:00:00Z,26.4966,-82.1479,2.151,7.23,1111122 
SCCF RECON,ioos:station:SCCF:12:1,2009-12-01T10:00:00Z,26.4966,-82.1479,2.02,7.12,1111122 
SCCF RECON,ioos:station:SCCF:12:1,2009-12-01T11:00:00Z,26.4966,-82.1479,1.9,7.09,1111122 
SCCF RECON,ioos:station:SCCF:12:1,2009-12-01T12:00:00Z,26.4966,-82.1479,1.82,6.77,1111122 
SCCF RECON,ioos:station:SCCF:12:1,2009-12-01T13:00:00Z,26.4966,-82.1479,1.86,6.63,1111122 
SCCF RECON,ioos:station:SCCF:12:1,2009-12-01T14:00:00Z,26.4966,-82.1479,2.035,6.67,1111122 
SCCF RECON,ioos:station:SCCF:12:1,2009-12-01T15:00:00Z,26.4966,-82.1479,2.2,7.01,1111122 
SCCF RECON,ioos:station:SCCF:12:1,2009-12-01T16:00:00Z,26.4966,-82.1479,2.336,7.18,1111122 
SCCF RECON,ioos:station:SCCF:12:1,2009-12-01T17:00:00Z,26.4966,-82.1479,2.45,7.33,1111122 
SCCF RECON,ioos:station:SCCF:12:1,2009-12-01T18:00:00Z,26.4966,-82.1479,2.5,7.6,1111122 
SCCF RECON,ioos:station:SCCF:12:1,2009-12-01T19:00:00Z,26.4966,-82.1479,2.49,7.65,1111122 
SCCF RECON,ioos:station:SCCF:12:1,2009-12-01T20:00:00Z,26.4966,-82.1479,2.43,7.59,1111122 
SCCF RECON,ioos:station:SCCF:12:1,2009-12-01T21:00:00Z,26.4966,-82.1479,2.37,7.7,1111122 
SCCF RECON,ioos:station:SCCF:12:1,2009-12-01T22:00:00Z,26.4966,-82.1479,2.35,7.69,1111122 
SCCF RECON,ioos:station:SCCF:12:1,2009-12-01T23:00:00Z,26.4966,-82.1479,2.37,7.58,1111122 
SCCF RECON,ioos:station:SCCF:12:1,2009-12-02T00:00:00Z,26.4966,-82.1479,2.45,7.67,1111122 
SCCF RECON,ioos:station:SCCF:12:1,2009-12-02T01:00:00Z,26.4966,-82.1479,2.56,7.75,1111122 
SCCF RECON,ioos:station:SCCF:12:1,2009-12-02T02:00:00Z,26.4966,-82.1479,2.7,7.32,1111122 
SCCF RECON,ioos:station:SCCF:12:1,2009-12-02T03:00:00Z,26.4966,-82.1479,2.801,7.31,1111122 
SCCF RECON,ioos:station:SCCF:12:1,2009-12-02T04:00:00Z,26.4966,-82.1479,2.85,7.18,1111122 
SCCF RECON,ioos:station:SCCF:12:1,2009-12-02T05:00:00Z,26.4966,-82.1479,2.83,7.03,1111122 
SCCF RECON,ioos:station:SCCF:12:1,2009-12-02T06:00:00Z,26.4966,-82.1479,2.751,7.31,1111122 
SCCF RECON,ioos:station:SCCF:12:1,2009-12-02T07:00:00Z,26.4966,-82.1479,2.65,7.33,1111122 
SCCF RECON,ioos:station:SCCF:12:1,2009-12-02T08:00:00Z,26.4966,-82.1479,2.49,7.26,1111122 
SCCF RECON,ioos:station:SCCF:12:1,2009-12-02T09:00:00Z,26.4966,-82.1479,2.33,7.11,1111122 
SCCF RECON,ioos:station:SCCF:12:1,2009-12-02T10:00:00Z,26.4966,-82.1479,2.18,7.05,1111122 
SCCF RECON,ioos:station:SCCF:12:1,2009-12-02T11:00:00Z,26.4966,-82.1479,2.04,7.04,1111122 
SCCF RECON,ioos:station:SCCF:12:1,2009-12-02T12:00:00Z,26.4966,-82.1479,1.94,6.93,1111122 
SCCF RECON,ioos:station:SCCF:12:1,2009-12-02T13:00:00Z,26.4966,-82.1479,1.87,6.85,1111122 
SCCF RECON,ioos:station:SCCF:12:1,2009-12-02T14:00:00Z,26.4966,-82.1479,1.949,6.86,1111122 
SCCF RECON,ioos:station:SCCF:12:1,2009-12-02T15:00:00Z,26.4966,-82.1479,2.14,6.98,1111122 
SCCF RECON,ioos:station:SCCF:12:1,2009-12-02T16:00:00Z,26.4966,-82.1479,2.314,7.03,1111122 
SCCF RECON,ioos:station:SCCF:12:1,2009-12-02T17:00:00Z,26.4966,-82.1479,2.439,7.19,1111122 
SCCF RECON,ioos:station:SCCF:12:1,2009-12-02T18:00:00Z,26.4966,-82.1479,2.5,7.2,1111122 
SCCF RECON,ioos:station:SCCF:12:1,2009-12-02T19:00:00Z,26.4966,-82.1479,2.54,7.07,1111122 
SCCF RECON,ioos:station:SCCF:12:1,2009-12-02T20:00:00Z,26.4966,-82.1479,2.55,7.04,1111122 
SCCF RECON,ioos:station:SCCF:12:1,2009-12-02T21:00:00Z,26.4966,-82.1479,2.52,7.11,1111122 
SCCF RECON,ioos:station:SCCF:12:1,2009-12-02T22:00:00Z,26.4966,-82.1479,2.5,7.17,1111122 
SCCF RECON,ioos:station:SCCF:12:1,2009-12-02T23:00:00Z,26.4966,-82.1479,2.48,7.13,1111122 
SCCF RECON,ioos:station:SCCF:12:1,2009-12-03T00:00:00Z,26.4966,-82.1479,2.49,6.91,1111122 
SCCF RECON,ioos:station:SCCF:12:1,2009-12-03T01:00:00Z,26.4966,-82.1479,2.54,6.66,1111122 
SCCF RECON,ioos:station:SCCF:12:1,2009-12-03T02:00:00Z,26.4966,-82.1479,2.627,6.62,1111122 
SCCF RECON,ioos:station:SCCF:12:1,2009-12-03T03:00:00Z,26.4966,-82.1479,2.72,6.56,1111122 
SCCF RECON,ioos:station:SCCF:12:1,2009-12-03T04:00:00Z,26.4966,-82.1479,2.79,6.53,1111122 
SCCF RECON,ioos:station:SCCF:12:1,2009-12-03T05:00:00Z,26.4966,-82.1479,2.811,6.5,1111122 
SCCF RECON,ioos:station:SCCF:12:1,2009-12-03T06:00:00Z,26.4966,-82.1479,2.8,6.54,1111122 
SCCF RECON,ioos:station:SCCF:12:1,2009-12-03T07:00:00Z,26.4966,-82.1479,2.73,6.49,1111122 
SCCF RECON,ioos:station:SCCF:12:1,2009-12-03T08:00:00Z,26.4966,-82.1479,2.629,6.5,1111122 
SCCF RECON,ioos:station:SCCF:12:1,2009-12-03T09:00:00Z,26.4966,-82.1479,2.473,6.37,1111122 
SCCF RECON,ioos:station:SCCF:12:1,2009-12-03T10:00:00Z,26.4966,-82.1479,2.32,6.22,1111122 
SCCF RECON,ioos:station:SCCF:12:1,2009-12-03T11:00:00Z,26.4966,-82.1479,2.2,6.35,1111122 
SCCF RECON,ioos:station:SCCF:12:1,2009-12-03T12:00:00Z,26.4966,-82.1479,2.059,6.42,1111122 
SCCF RECON,ioos:station:SCCF:12:1,2009-12-03T13:00:00Z,26.4966,-82.1479,1.932,6.37,1111122 
SCCF RECON,ioos:station:SCCF:12:1,2009-12-03T14:00:00Z,26.4966,-82.1479,1.86,6.25,1111122 
SCCF RECON,ioos:station:SCCF:12:1,2009-12-03T15:00:00Z,26.4966,-82.1479,1.88,6.25,1111122 
SCCF RECON,ioos:station:SCCF:12:1,2009-12-03T16:00:00Z,26.4966,-82.1479,2.02,6.21,1111122 
SCCF RECON,ioos:station:SCCF:12:1,2009-12-03T17:00:00Z,26.4966,-82.1479,2.17,6.38,1111122 
SCCF RECON,ioos:station:SCCF:12:1,2009-12-03T18:00:00Z,26.4966,-82.1479,2.3,6.42,1111122 
SCCF RECON,ioos:station:SCCF:12:1,2009-12-03T19:00:00Z,26.4966,-82.1479,2.39,6.34,1111122 
SCCF RECON,ioos:station:SCCF:12:1,2009-12-03T20:00:00Z,26.4966,-82.1479,2.44,6.44,1111122 
SCCF RECON,ioos:station:SCCF:12:1,2009-12-03T21:00:00Z,26.4966,-82.1479,2.44,6.25,1111122 
SCCF RECON,ioos:station:SCCF:12:1,2009-12-03T22:00:00Z,26.4966,-82.1479,2.409,6.1,1111122 
SCCF RECON,ioos:station:SCCF:12:1,2009-12-03T23:00:00Z,26.4966,-82.1479,2.36,5.92,1111122 
SCCF RECON,ioos:station:SCCF:12:1,2009-12-04T00:00:00Z,26.4966,-82.1479,2.32,5.87,1111122 
SCCF RECON,ioos:station:SCCF:12:1,2009-12-04T01:00:00Z,26.4966,-82.1479,2.32,6.12,1111122 
SCCF RECON,ioos:station:SCCF:12:1,2009-12-04T02:00:00Z,26.4966,-82.1479,2.366,6.19,1111122 
SCCF RECON,ioos:station:SCCF:12:1,2009-12-04T03:00:00Z,26.4966,-82.1479,2.45,6.27,1111122 
SCCF RECON,ioos:station:SCCF:12:1,2009-12-04T04:00:00Z,26.4966,-82.1479,2.574,6.2,1111122 
SCCF RECON,ioos:station:SCCF:12:1,2009-12-04T05:00:00Z,26.4966,-82.1479,2.67,5.75,1111122 
SCCF RECON,ioos:station:SCCF:12:1,2009-12-04T06:00:00Z,26.4966,-82.1479,2.72,5.88,1111122 
SCCF RECON,ioos:station:SCCF:12:1,2009-12-04T07:00:00Z,26.4966,-82.1479,2.69,5.79,1111122 
SCCF RECON,ioos:station:SCCF:12:1,2009-12-04T08:00:00Z,26.4966,-82.1479,2.6,6.01,1111122 
SCCF RECON,ioos:station:SCCF:12:1,2009-12-04T09:00:00Z,26.4966,-82.1479,2.48,5.91,1111122 
SCCF RECON,ioos:station:SCCF:12:1,2009-12-04T10:00:00Z,26.4966,-82.1479,2.34,5.69,1111122 
SCCF RECON,ioos:station:SCCF:12:1,2009-12-04T11:00:00Z,26.4966,-82.1479,2.2,5.97,1111122 
SCCF RECON,ioos:station:SCCF:12:1,2009-12-04T12:00:00Z,26.4966,-82.1479,2.06,5.88,1111122 
SCCF RECON,ioos:station:SCCF:12:1,2009-12-04T13:00:00Z,26.4966,-82.1479,1.931,5.86,1111122 
SCCF RECON,ioos:station:SCCF:12:1,2009-12-04T14:00:00Z,26.4966,-82.1479,1.82,5.81,1111122 
SCCF RECON,ioos:station:SCCF:12:1,2009-12-04T15:00:00Z,26.4966,-82.1479,1.73,5.61,1111122 
SCCF RECON,ioos:station:SCCF:12:1,2009-12-04T16:00:00Z,26.4966,-82.1479,1.74,5.63,1111122 
SCCF RECON,ioos:station:SCCF:12:1,2009-12-04T17:00:00Z,26.4966,-82.1479,1.86,5.76,1111122 
SCCF RECON,ioos:station:SCCF:12:1,2009-12-04T18:00:00Z,26.4966,-82.1479,1.982,5.97,1111122 
SCCF RECON,ioos:station:SCCF:12:1,2009-12-04T19:00:00Z,26.4966,-82.1479,2.1,5.72,1111122 
SCCF RECON,ioos:station:SCCF:12:1,2009-12-04T20:00:00Z,26.4966,-82.1479,2.21,5.96,1111122 
SCCF RECON,ioos:station:SCCF:12:1,2009-12-04T21:00:00Z,26.4966,-82.1479,2.29,5.94,1111122 
SCCF RECON,ioos:station:SCCF:12:1,2009-12-04T22:00:00Z,26.4966,-82.1479,2.32,5.8,1111122 
SCCF RECON,ioos:station:SCCF:12:1,2009-12-04T23:00:00Z,26.4966,-82.1479,2.3,5.62,1111122 
SCCF RECON,ioos:station:SCCF:12:1,2009-12-05T00:00:00Z,26.4966,-82.1479,2.24,5.42,1111122 
SCCF RECON,ioos:station:SCCF:12:1,2009-12-05T01:00:00Z,26.4966,-82.1479,2.2,5.37,1111122 
SCCF RECON,ioos:station:SCCF:12:1,2009-12-05T02:00:00Z,26.4966,-82.1479,2.2,5.78,1111122 
SCCF RECON,ioos:station:SCCF:12:1,2009-12-05T03:00:00Z,26.4966,-82.1479,2.23,5.85,1111122 
SCCF RECON,ioos:station:SCCF:12:1,2009-12-05T04:00:00Z,26.4966,-82.1479,2.32,5.98,1111122 
SCCF RECON,ioos:station:SCCF:12:1,2009-12-05T05:00:00Z,26.4966,-82.1479,2.431,5.75,1111122 
SCCF RECON,ioos:station:SCCF:12:1,2009-12-05T06:00:00Z,26.4966,-82.1479,2.53,5.92,1111122 
SCCF RECON,ioos:station:SCCF:12:1,2009-12-05T07:00:00Z,26.4966,-82.1479,2.59,5.93,1111122 
SCCF RECON,ioos:station:SCCF:12:1,2009-12-05T08:00:00Z,26.4966,-82.1479,2.58,6.08,1111122 
SCCF RECON,ioos:station:SCCF:12:1,2009-12-05T09:00:00Z,26.4966,-82.1479,2.53,6.02,1111122 
SCCF RECON,ioos:station:SCCF:12:1,2009-12-05T10:00:00Z,26.4966,-82.1479,2.46,6.0,1111122 
SCCF RECON,ioos:station:SCCF:12:1,2009-12-05T11:00:00Z,26.4966,-82.1479,2.36,5.92,1111122 
SCCF RECON,ioos:station:SCCF:12:1,2009-12-05T12:00:00Z,26.4966,-82.1479,2.22,5.93,1111122 
SCCF RECON,ioos:station:SCCF:12:1,2009-12-05T13:00:00Z,26.4966,-82.1479,2.09,5.87,1111122 
SCCF RECON,ioos:station:SCCF:12:1,2009-12-05T14:00:00Z,26.4966,-82.1479,1.97,5.94,1111122 
SCCF RECON,ioos:station:SCCF:12:1,2009-12-05T15:00:00Z,26.4966,-82.1479,1.9,6.0,1111122 
SCCF RECON,ioos:station:SCCF:12:1,2009-12-05T16:00:00Z,26.4966,-82.1479,1.863,6.06,1111122 
SCCF RECON,ioos:station:SCCF:12:1,2009-12-05T17:00:00Z,26.4966,-82.1479,1.94,6.03,1111122 
SCCF RECON,ioos:station:SCCF:12:1,2009-12-05T18:00:00Z,26.4966,-82.1479,2.07,6.22,1111122 
SCCF RECON,ioos:station:SCCF:12:1,2009-12-05T19:00:00Z,26.4966,-82.1479,2.19,6.21,1111122 
SCCF RECON,ioos:station:SCCF:12:1,2009-12-05T20:00:00Z,26.4966,-82.1479,2.26,6.37,1111122 
SCCF RECON,ioos:station:SCCF:12:1,2009-12-05T21:00:00Z,26.4966,-82.1479,2.27,6.4,1111122 
SCCF RECON,ioos:station:SCCF:12:1,2009-12-05T22:00:00Z,26.4966,-82.1479,2.28,6.29,1111122 
SCCF RECON,ioos:station:SCCF:12:1,2009-12-05T23:00:00Z,26.4966,-82.1479,2.271,6.31,1111122 
SCCF RECON,ioos:station:SCCF:12:1,2009-12-06T00:00:00Z,26.4966,-82.1479,2.23,6.3,1111122 
SCCF RECON,ioos:station:SCCF:12:1,2009-12-06T01:00:00Z,26.4966,-82.1479,2.17,6.32,1111122 
SCCF RECON,ioos:station:SCCF:12:1,2009-12-06T02:00:00Z,26.4966,-82.1479,2.1,6.52,1111122 
SCCF RECON,ioos:station:SCCF:12:1,2009-12-06T03:00:00Z,26.4966,-82.1479,2.06,6.52,1111122 
SCCF RECON,ioos:station:SCCF:12:1,2009-12-06T04:00:00Z,26.4966,-82.1479,2.06,6.53,1111122 
SCCF RECON,ioos:station:SCCF:12:1,2009-12-06T05:00:00Z,26.4966,-82.1479,2.11,6.47,1111122 
SCCF RECON,ioos:station:SCCF:12:1,2009-12-06T06:00:00Z,26.4966,-82.1479,2.229,6.32,1111122 
SCCF RECON,ioos:station:SCCF:12:1,2009-12-06T07:00:00Z,26.4966,-82.1479,2.33,6.34,1111122 
SCCF RECON,ioos:station:SCCF:12:1,2009-12-06T08:00:00Z,26.4966,-82.1479,2.39,6.11,1111122 
SCCF RECON,ioos:station:SCCF:12:1,2009-12-06T09:00:00Z,26.4966,-82.1479,2.408,6.11,1111122 
SCCF RECON,ioos:station:SCCF:12:1,2009-12-06T10:00:00Z,26.4966,-82.1479,2.38,6.23,1111122 
SCCF RECON,ioos:station:SCCF:12:1,2009-12-06T11:00:00Z,26.4966,-82.1479,2.33,6.35,1111122 
SCCF RECON,ioos:station:SCCF:12:1,2009-12-06T12:00:00Z,26.4966,-82.1479,2.26,6.42,1111122 
SCCF RECON,ioos:station:SCCF:12:1,2009-12-06T13:00:00Z,26.4966,-82.1479,2.17,6.42,1111122 
SCCF RECON,ioos:station:SCCF:12:1,2009-12-06T14:00:00Z,26.4966,-82.1479,2.07,6.57,1111122 
SCCF RECON,ioos:station:SCCF:12:1,2009-12-06T15:00:00Z,26.4966,-82.1479,1.98,6.53,1111122 
SCCF RECON,ioos:station:SCCF:12:1,2009-12-06T16:00:00Z,26.4966,-82.1479,1.897,6.58,1111122 
SCCF RECON,ioos:station:SCCF:12:1,2009-12-06T17:00:00Z,26.4966,-82.1479,1.86,6.68,1111122 
SCCF RECON,ioos:station:SCCF:12:1,2009-12-06T18:00:00Z,26.4966,-82.1479,1.9,6.56,1111122 
SCCF RECON,ioos:station:SCCF:12:1,2009-12-06T19:00:00Z,26.4966,-82.1479,2.0,6.69,1111122 
SCCF RECON,ioos:station:SCCF:12:1,2009-12-06T20:00:00Z,26.4966,-82.1479,2.108,6.88,1111122 
SCCF RECON,ioos:station:SCCF:12:1,2009-12-06T21:00:00Z,26.4966,-82.1479,2.2,6.89,1111122 
SCCF RECON,ioos:station:SCCF:12:1,2009-12-06T22:00:00Z,26.4966,-82.1479,2.29,6.85,1111122 
SCCF RECON,ioos:station:SCCF:12:1,2009-12-06T23:00:00Z,26.4966,-82.1479,2.35,6.88,1111122 
SCCF RECON,ioos:station:SCCF:12:1,2009-12-07T00:00:00Z,26.4966,-82.1479,2.37,6.76,1111122 
SCCF RECON,ioos:station:SCCF:12:1,2009-12-07T01:00:00Z,26.4966,-82.1479,2.35,6.54,1111122 
SCCF RECON,ioos:station:SCCF:12:1,2009-12-07T02:00:00Z,26.4966,-82.1479,2.31,6.22,1111122 
SCCF RECON,ioos:station:SCCF:12:1,2009-12-07T03:00:00Z,26.4966,-82.1479,2.232,6.3,1111122 
SCCF RECON,ioos:station:SCCF:12:1,2009-12-07T04:00:00Z,26.4966,-82.1479,2.21,6.43,1111122 
SCCF RECON,ioos:station:SCCF:12:1,2009-12-07T05:00:00Z,26.4966,-82.1479,2.23,6.43,1111122 
SCCF RECON,ioos:station:SCCF:12:1,2009-12-07T06:00:00Z,26.4966,-82.1479,2.3,6.47,1111122 
SCCF RECON,ioos:station:SCCF:12:1,2009-12-07T07:00:00Z,26.4966,-82.1479,2.38,6.42,1111122 
SCCF RECON,ioos:station:SCCF:12:1,2009-12-07T08:00:00Z,26.4966,-82.1479,2.44,6.29,1111122 
SCCF RECON,ioos:station:SCCF:12:1,2009-12-07T09:00:00Z,26.4966,-82.1479,2.48,6.45,1111122 
SCCF RECON,ioos:station:SCCF:12:1,2009-12-07T10:00:00Z,26.4966,-82.1479,2.48,6.43,1111122 
SCCF RECON,ioos:station:SCCF:12:1,2009-12-07T11:00:00Z,26.4966,-82.1479,2.46,6.16,1111122 
SCCF RECON,ioos:station:SCCF:12:1,2009-12-07T12:00:00Z,26.4966,-82.1479,2.39,5.99,1111122 
SCCF RECON,ioos:station:SCCF:12:1,2009-12-07T13:00:00Z,26.4966,-82.1479,2.318,5.91,1111122 
SCCF RECON,ioos:station:SCCF:12:1,2009-12-07T14:00:00Z,26.4966,-82.1479,2.21,5.79,1111122 
SCCF RECON,ioos:station:SCCF:12:1,2009-12-07T15:00:00Z,26.4966,-82.1479,2.068,5.79,1111122 
SCCF RECON,ioos:station:SCCF:12:1,2009-12-07T17:00:00Z,26.4966,-82.1479,1.332,6.77,1111122 
SCCF RECON,ioos:station:SCCF:12:1,2009-12-07T18:00:00Z,26.4966,-82.1479,1.66,6.97,1111122 
SCCF RECON,ioos:station:SCCF:12:1,2009-12-07T19:00:00Z,26.4966,-82.1479,1.825,7.15,1111122 
SCCF RECON,ioos:station:SCCF:12:1,2009-12-07T20:00:00Z,26.4966,-82.1479,1.97,7.16,1111122 
SCCF RECON,ioos:station:SCCF:12:1,2009-12-07T21:00:00Z,26.4966,-82.1479,2.11,7.39,1111122 
SCCF RECON,ioos:station:SCCF:12:1,2009-12-07T22:00:00Z,26.4966,-82.1479,2.21,7.21,1111122 
SCCF RECON,ioos:station:SCCF:12:1,2009-12-07T23:00:00Z,26.4966,-82.1479,2.29,7.1,1111122 
SCCF RECON,ioos:station:SCCF:12:1,2009-12-08T00:00:00Z,26.4966,-82.1479,2.31,6.83,1111122 
SCCF RECON,ioos:station:SCCF:12:1,2009-12-08T01:00:00Z,26.4966,-82.1479,2.32,6.51,1111122 
SCCF RECON,ioos:station:SCCF:12:1,2009-12-08T02:00:00Z,26.4966,-82.1479,2.31,6.43,1111122 
SCCF RECON,ioos:station:SCCF:12:1,2009-12-08T03:00:00Z,26.4966,-82.1479,2.26,6.35,1111122 
SCCF RECON,ioos:station:SCCF:12:1,2009-12-08T04:00:00Z,26.4966,-82.1479,2.2,6.35,1111122 
SCCF RECON,ioos:station:SCCF:12:1,2009-12-08T05:00:00Z,26.4966,-82.1479,2.17,6.38,1111122 
SCCF RECON,ioos:station:SCCF:12:1,2009-12-08T06:00:00Z,26.4966,-82.1479,2.17,6.55,1111122 
SCCF RECON,ioos:station:SCCF:12:1,2009-12-08T07:00:00Z,26.4966,-82.1479,2.2,6.58,1111122 
SCCF RECON,ioos:station:SCCF:12:1,2009-12-08T08:00:00Z,26.4966,-82.1479,2.24,6.59,1111122 
SCCF RECON,ioos:station:SCCF:12:1,2009-12-08T09:00:00Z,26.4966,-82.1479,2.291,6.48,1111122 
SCCF RECON,ioos:station:SCCF:12:1,2009-12-08T10:00:00Z,26.4966,-82.1479,2.35,6.53,1111122 
SCCF RECON,ioos:station:SCCF:12:1,2009-12-08T11:00:00Z,26.4966,-82.1479,2.391,6.54,1111122 
SCCF RECON,ioos:station:SCCF:12:1,2009-12-08T12:00:00Z,26.4966,-82.1479,2.41,6.49,1111122 
SCCF RECON,ioos:station:SCCF:12:1,2009-12-08T13:00:00Z,26.4966,-82.1479,2.41,6.51,1111122 
SCCF RECON,ioos:station:SCCF:12:1,2009-12-08T14:00:00Z,26.4966,-82.1479,2.37,6.59,1111122 
SCCF RECON,ioos:station:SCCF:12:1,2009-12-08T15:00:00Z,26.4966,-82.1479,2.29,6.32,1111122 
SCCF RECON,ioos:station:SCCF:12:1,2009-12-08T16:00:00Z,26.4966,-82.1479,2.2,6.57,1111122 
SCCF RECON,ioos:station:SCCF:12:1,2009-12-08T17:00:00Z,26.4966,-82.1479,2.12,6.73,1111122 
SCCF RECON,ioos:station:SCCF:12:1,2009-12-08T18:00:00Z,26.4966,-82.1479,2.08,6.98,1111122 
SCCF RECON,ioos:station:SCCF:12:1,2009-12-08T19:00:00Z,26.4966,-82.1479,2.09,7.18,1111122 
SCCF RECON,ioos:station:SCCF:12:1,2009-12-08T20:00:00Z,26.4966,-82.1479,2.14,7.12,1111122 
SCCF RECON,ioos:station:SCCF:12:1,2009-12-08T21:00:00Z,26.4966,-82.1479,2.21,7.23,1111122 
SCCF RECON,ioos:station:SCCF:12:1,2009-12-08T22:00:00Z,26.4966,-82.1479,2.29,7.11,1111122 
SCCF RECON,ioos:station:SCCF:12:1,2009-12-08T23:00:00Z,26.4966,-82.1479,2.358,7.28,1111122 
SCCF RECON,ioos:station:SCCF:12:1,2009-12-09T00:00:00Z,26.4966,-82.1479,2.41,7.41,1111122 
SCCF RECON,ioos:station:SCCF:12:1,2009-12-09T01:00:00Z,26.4966,-82.1479,2.44,7.27,1111122 
SCCF RECON,ioos:station:SCCF:12:1,2009-12-09T02:00:00Z,26.4966,-82.1479,2.44,7.05,1111122 
SCCF RECON,ioos:station:SCCF:12:1,2009-12-09T03:00:00Z,26.4966,-82.1479,2.41,7.29,1111122 
SCCF RECON,ioos:station:SCCF:12:1,2009-12-09T04:00:00Z,26.4966,-82.1479,2.36,7.37,1111122 
SCCF RECON,ioos:station:SCCF:12:1,2009-12-09T05:00:00Z,26.4966,-82.1479,2.29,7.0,1111122 
SCCF RECON,ioos:station:SCCF:12:1,2009-12-09T06:00:00Z,26.4966,-82.1479,2.24,6.66,1111122 
SCCF RECON,ioos:station:SCCF:12:1,2009-12-09T07:00:00Z,26.4966,-82.1479,2.21,7.0,1111122 
SCCF RECON,ioos:station:SCCF:12:1,2009-12-09T08:00:00Z,26.4966,-82.1479,2.21,7.1,1111122 
SCCF RECON,ioos:station:SCCF:12:1,2009-12-09T09:00:00Z,26.4966,-82.1479,2.241,6.9,1111122 
SCCF RECON,ioos:station:SCCF:12:1,2009-12-09T10:00:00Z,26.4966,-82.1479,2.29,6.7,1111122 
SCCF RECON,ioos:station:SCCF:12:1,2009-12-09T11:00:00Z,26.4966,-82.1479,2.34,6.62,1111122 
SCCF RECON,ioos:station:SCCF:12:1,2009-12-09T12:00:00Z,26.4966,-82.1479,2.38,6.79,1111122 
SCCF RECON,ioos:station:SCCF:12:1,2009-12-09T13:00:00Z,26.4966,-82.1479,2.4,6.89,1111122 
SCCF RECON,ioos:station:SCCF:12:1,2009-12-09T14:00:00Z,26.4966,-82.1479,2.4,6.38,1111122 
SCCF RECON,ioos:station:SCCF:12:1,2009-12-09T15:00:00Z,26.4966,-82.1479,2.39,6.45,1111122 
SCCF RECON,ioos:station:SCCF:12:1,2009-12-09T16:00:00Z,26.4966,-82.1479,2.32,6.54,1111122 
SCCF RECON,ioos:station:SCCF:12:1,2009-12-09T17:00:00Z,26.4966,-82.1479,2.22,6.72,1111122 
SCCF RECON,ioos:station:SCCF:12:1,2009-12-09T18:00:00Z,26.4966,-82.1479,2.16,6.78,1111122 
SCCF RECON,ioos:station:SCCF:12:1,2009-12-09T19:00:00Z,26.4966,-82.1479,2.14,7.22,1111122 
SCCF RECON,ioos:station:SCCF:12:1,2009-12-09T20:00:00Z,26.4966,-82.1479,2.16,7.14,1111122 
SCCF RECON,ioos:station:SCCF:12:1,2009-12-09T21:00:00Z,26.4966,-82.1479,2.21,7.23,1111122 
SCCF RECON,ioos:station:SCCF:12:1,2009-12-09T22:00:00Z,26.4966,-82.1479,2.27,7.35,1111122 
SCCF RECON,ioos:station:SCCF:12:1,2009-12-09T23:00:00Z,26.4966,-82.1479,2.33,7.4,1111122 
SCCF RECON,ioos:station:SCCF:12:1,2009-12-10T00:00:00Z,26.4966,-82.1479,2.38,7.25,1111122 
SCCF RECON,ioos:station:SCCF:12:1,2009-12-10T01:00:00Z,26.4966,-82.1479,2.44,7.43,1111122 
SCCF RECON,ioos:station:SCCF:12:1,2009-12-10T02:00:00Z,26.4966,-82.1479,2.46,7.77,1111122 
SCCF RECON,ioos:station:SCCF:12:1,2009-12-10T03:00:00Z,26.4966,-82.1479,2.474,7.17,1111122 
SCCF RECON,ioos:station:SCCF:12:1,2009-12-10T04:00:00Z,26.4966,-82.1479,2.433,6.81,1111122 
SCCF RECON,ioos:station:SCCF:12:1,2009-12-10T05:00:00Z,26.4966,-82.1479,2.36,6.42,1111122 
SCCF RECON,ioos:station:SCCF:12:1,2009-12-10T06:00:00Z,26.4966,-82.1479,2.256,7.0,1111122 
SCCF RECON,ioos:station:SCCF:12:1,2009-12-10T07:00:00Z,26.4966,-82.1479,2.16,7.02,1111122 
SCCF RECON,ioos:station:SCCF:12:1,2009-12-10T08:00:00Z,26.4966,-82.1479,2.1,6.99,1111122 
SCCF RECON,ioos:station:SCCF:12:1,2009-12-10T09:00:00Z,26.4966,-82.1479,2.09,7.03,1111122 
SCCF RECON,ioos:station:SCCF:12:1,2009-12-10T10:00:00Z,26.4966,-82.1479,2.12,6.71,1111122 
SCCF RECON,ioos:station:SCCF:12:1,2009-12-10T11:00:00Z,26.4966,-82.1479,2.17,6.6,1111122 
SCCF RECON,ioos:station:SCCF:12:1,2009-12-10T12:00:00Z,26.4966,-82.1479,2.22,6.44,1111122 
SCCF RECON,ioos:station:SCCF:12:1,2009-12-10T13:00:00Z,26.4966,-82.1479,2.27,6.41,1111122 
SCCF RECON,ioos:station:SCCF:12:1,2009-12-10T14:00:00Z,26.4966,-82.1479,2.32,6.67,1111122 
SCCF RECON,ioos:station:SCCF:12:1,2009-12-10T15:00:00Z,26.4966,-82.1479,2.36,6.6,1111122 
SCCF RECON,ioos:station:SCCF:12:1,2009-12-10T16:00:00Z,26.4966,-82.1479,2.37,6.17,1111122 
SCCF RECON,ioos:station:SCCF:12:1,2009-12-10T17:00:00Z,26.4966,-82.1479,2.38,6.81,1111122 
SCCF RECON,ioos:station:SCCF:12:1,2009-12-10T18:00:00Z,26.4966,-82.1479,2.35,6.94,1111122 
SCCF RECON,ioos:station:SCCF:12:1,2009-12-10T19:00:00Z,26.4966,-82.1479,2.3,6.92,1111122 
SCCF RECON,ioos:station:SCCF:12:1,2009-12-10T20:00:00Z,26.4966,-82.1479,2.26,7.21,1111122 
SCCF RECON,ioos:station:SCCF:12:1,2009-12-10T21:00:00Z,26.4966,-82.1479,2.25,7.37,1111122 
SCCF RECON,ioos:station:SCCF:12:1,2009-12-10T22:00:00Z,26.4966,-82.1479,2.29,7.3,1111122 
SCCF RECON,ioos:station:SCCF:12:1,2009-12-10T23:00:00Z,26.4966,-82.1479,2.35,7.24,1111122 
SCCF RECON,ioos:station:SCCF:12:1,2009-12-11T00:00:00Z,26.4966,-82.1479,2.411,7.02,1111122 
SCCF RECON,ioos:station:SCCF:12:1,2009-12-11T01:00:00Z,26.4966,-82.1479,2.46,7.06,1111122 
SCCF RECON,ioos:station:SCCF:12:1,2009-12-11T02:00:00Z,26.4966,-82.1479,2.48,7.15,1111122 
SCCF RECON,ioos:station:SCCF:12:1,2009-12-11T03:00:00Z,26.4966,-82.1479,2.48,7.03,1111122 
SCCF RECON,ioos:station:SCCF:12:1,2009-12-11T04:00:00Z,26.4966,-82.1479,2.45,6.8,1111122 
SCCF RECON,ioos:station:SCCF:12:1,2009-12-11T05:00:00Z,26.4966,-82.1479,2.385,6.7,1111122 
SCCF RECON,ioos:station:SCCF:12:1,2009-12-11T06:00:00Z,26.4966,-82.1479,2.28,6.72,1111122 
SCCF RECON,ioos:station:SCCF:12:1,2009-12-11T07:00:00Z,26.4966,-82.1479,2.17,6.62,1111122 
SCCF RECON,ioos:station:SCCF:12:1,2009-12-11T08:00:00Z,26.4966,-82.1479,2.07,6.58,1111122 
SCCF RECON,ioos:station:SCCF:12:1,2009-12-11T09:00:00Z,26.4966,-82.1479,1.99,6.61,1111122 
SCCF RECON,ioos:station:SCCF:12:1,2009-12-11T10:00:00Z,26.4966,-82.1479,1.94,6.59,1111122 
SCCF RECON,ioos:station:SCCF:12:1,2009-12-11T11:00:00Z,26.4966,-82.1479,1.93,6.53,1111122 
SCCF RECON,ioos:station:SCCF:12:1,2009-12-11T12:00:00Z,26.4966,-82.1479,1.956,6.56,1111122 
SCCF RECON,ioos:station:SCCF:12:1,2009-12-11T13:00:00Z,26.4966,-82.1479,2.01,6.37,1111122 
SCCF RECON,ioos:station:SCCF:12:1,2009-12-11T14:00:00Z,26.4966,-82.1479,2.07,6.81,1111122 
SCCF RECON,ioos:station:SCCF:12:1,2009-12-11T15:00:00Z,26.4966,-82.1479,2.13,6.73,1111122 
SCCF RECON,ioos:station:SCCF:12:1,2009-12-11T16:00:00Z,26.4966,-82.1479,2.19,6.84,1111122 
SCCF RECON,ioos:station:SCCF:12:1,2009-12-11T17:00:00Z,26.4966,-82.1479,2.21,6.85,1111122 
SCCF RECON,ioos:station:SCCF:12:1,2009-12-11T18:00:00Z,26.4966,-82.1479,2.22,6.95,1111122 
SCCF RECON,ioos:station:SCCF:12:1,2009-12-11T19:00:00Z,26.4966,-82.1479,2.22,7.02,1111122 
SCCF RECON,ioos:station:SCCF:12:1,2009-12-11T20:00:00Z,26.4966,-82.1479,2.22,7.06,1111122 
SCCF RECON,ioos:station:SCCF:12:1,2009-12-11T21:00:00Z,26.4966,-82.1479,2.224,7.16,1111122 
SCCF RECON,ioos:station:SCCF:12:1,2009-12-11T22:00:00Z,26.4966,-82.1479,2.25,7.56,1111122 